Showing default

BIOMASS, 63772

Orbit data source: Space-Track

BIOMASS, 63772 is a payload satellite owned by ESA (ESA) in SSO that was launched on Tue, 29 Apr 2025 UTC via a VEGA C launch vehicle from the French Guiana (FRGUI). Payload-class satellites include a variety of spacecraft equipped with specific instruments for various scientific and technological missions. These include communications satellites like Starlink; space stations such as the ISS; scientific satellites like the Hubble; Earth observation satellites from companies like Planet Labs, Umbra, and HawkEye 360; GPS; miniature CubeSats for education and research; and military/defense satellites.

Loading next visibility...
Identifier
63772, 2025-090A
Orbit
SSO
Country
Flag of ESAESA
Related business
Manufacturer
Airbus (UK)
Mission
Operational Civil Earth Obs Sci
Bus & Motor
BIOMASS, Unknown motor
Mass
1,131 kg wet, 1,099 kg dry
Launch date (UTC)
2025-04-29 (1 year ago)
Launch vehicle
VEGA C
Launch site
French Guiana (FRGUI)
Object type
Payload
Rocket body
Debris
Shape & HBR
Box + 1 Pan + 1 Rod + 1 Dish, 16.0 m
Radar Cross Section
386.787 m², Large (>1 m²)

Expand to show TLE details & history
Last TLE update: 10 hours ago

TLE from 10 hours ago
0 BIOMASS
1 63772U 25090A   26171.44261398  .00000148  00000-0  34623-4 0  9990
2 63772  98.0744 358.7127 0001448  95.6178 264.5192 14.67536927 61168
Epoch: 2026-06-20T10:37Z
TLE epoch observation values (Epoch: 2026-06-20T10:37:21.847Z)
Latitude
-0.00002°
Longitude
-69.2855°
Altitude
672.039 km
Speed
7.521 km/s
True Right ascension
23h 54m 51s
True Declination
0° 00' 00"
Sunlit
Object was in daylight at epoch
Visualization orbit readout
Latitude
Unknown
Longitude
Unknown
Altitude
Unknown
Speed
Unknown
Apparent Right ascension
Unknown
Apparent Declination
Unknown
Sunlit
N/A
Visualization observer readout
Local Sidereal Time
07:17:03
Azimuth
Unknown
Elevation
Unknown
Doppler factor
Unknown
Orbital elements
Apogee altitude
667.028 km
Perigee altitude
664.988 km
Semi-major axis
7,044.145 km
Eccentricity
0.00014
Inclination
98.0744°
RAAN
358.7127°
Arg. of periapsis
95.6178°
True anomaly
264.50268°
Mean anomaly
264.5192°
Eccentric anomaly
264.51094°
Mean motion
3.67114 °/min
Orbital period
98.06 mins
BSTAR
0.000034623
Loading maneuver chart data...
Computing Atmospheric mass density...
Loading historical data...
Loading historical data...
Loading historical data...
Loading historical data...
Loading historical data...
Loading historical data...
Loading historical data...
Other satellites on launch #90 in the year 2025 (2025-04-29 UTC)

Documentation

Showing up to 5 results
|